Regional Weather Roundup
Issued by NWS Wakefield, VA

Home | Current Version | Previous Version | Text Only | Print | Product List | Glossary On
Versions: 1 2 3 4 5 6 7 8 9 10 11 12 13 14 15 16 17 18 19 20 21 22 23 24 25 26 27 28 29 30 31 32 33 34 35 36 37 38 39 40 41 42 43 44 45 46 47 48 49 50
000
ASUS41 KAKQ 301610
RWRAKQ

REGIONAL WEATHER ROUNDUP
NATIONAL WEATHER SERVICE WAKEFIELD VA
1100 AM EST FRI JAN 30 2015

Note: "fair" indicates few or no clouds below 12,000 feet with no
significant weather and/or obstructions to visibility. * = Denotes
station may not report precipitation (e.g., rain,snow,etc.),
thunder or fog.

VAZ042-051-052>054-056-301700-
NORTHERN VIRGINIA

CITY           SKY/WX    TMP DP  RH WIND       PRES   REMARKS
WASH NATIONAL  PTSUNNY   40  29  64 NW15G23   30.06R
DULLES         FLURRIES  35  27  72 NW16G22   30.05R
FORT BELVOIR   PTSUNNY   40  28  62 N14       30.06R
QUANTICO       PTSUNNY   40  22  48 N24G36    30.07R
FREDERICKSBRG* PTSUNNY   44  26  47 NW17G23   30.04R
STAFFORD*      CLOUDY    39  18  43 NW20G33   30.09R
WARRENTON      CLOUDY    40  24  54 NW21G31   30.05R
CULPEPER*      PTSUNNY   41  19  42 N14       30.06R
MANASSAS*      CLOUDY    37  21  52 MISG      30.06R
LEESBURG*      CLOUDY    36  28  75 NW21G35   30.06R WCI  24
WINCHESTER     CLOUDY    34  19  55 NW18G26   30.06R WCI  23
FRONT ROYAL*   CLOUDY    36  19  51 NW15G26   30.05R
LURAY*         CLOUDY    36  21  55 NW8G26    30.06R
$$

VAZ048-049-060>072-079>083-301700-
CENTRAL AND SOUTH CENTRAL VIRGINIA

CITY           SKY/WX    TMP DP  RH WIND       PRES   REMARKS
RICHMOND       CLOUDY    43  23  45 NW16      30.03S
CHESTERFIELD*  CLOUDY    43  18  36 N9        30.05R
PETERSBURG*    CLOUDY    46  23  40 NW14      30.04S
HANOVER        CLOUDY    43  23  45 N8        30.05R
TAPPAHANNOCK*  PTSUNNY   44  16  31 NW13G20   30.03S
QUINTON*       CLOUDY    43  23  46 NW8       30.03S
CHARLOTTSVILLE MOSUNNY   40  26  57 N8        30.05R
GORDONSVILLE*  CLOUDY    39  24  55 NW3       30.05R
ORANGE*        MOSUNNY   41  21  45 W15G21    30.07R
LOUISA*        CLOUDY    41  21  45 N14G21    30.03R
BUMPASS*       CLOUDY    40  21  46 NW5       30.04R
FARMVILLE*     CLOUDY    48  19  31 NW10      30.05S
CREWE*         CLOUDY    43  18  37 NW18G30   30.05R
FORT PICKETT*  CLOUDY    42  21  42 NW15G21   30.05R
CHASE CITY*    FAIR      44  20  39 NW9G23    30.07S
CLARKSVILLE*   PTSUNNY   43  19  39 NW14G32   30.08S
SOUTH HILL*    CLOUDY    44  20  38 NW9G18    30.12R
LAWRENCEVILLE* PTSUNNY   45  22  39 NW13G22   30.04S
EMPORIA*       CLOUDY    43  23  45 W7G18     30.06R
$$

VAZ088>098-301700-
SOUTHEAST VIRGINIA

CITY           SKY/WX    TMP DP  RH WIND       PRES   REMARKS
NORFOLK        CLOUDY    41  28  60 N12G18    30.01S
VIRGINIA BEACH PTSUNNY   43  31  62 N14       30.00S
NORFOLK NAVAL  CLOUDY    44  27  51 N15       30.03S
WEST POINT*    CLOUDY    46  18  33 NW15G24   30.04S
SALUDA*        FAIR      43  23  44 NW10G22   30.01S
NEWPORT NEWS   CLOUDY    45  26  47 N8        30.02S
LANGLEY AFB    CLOUDY    41  26  55 N13       30.02S
FORT EUSTIS    CLOUDY    42  27  55 N7G23     30.01R
WILLIAMSBURG*    N/A     45  27  49 N9G17     30.03S
HR EXEC AP*    CLOUDY    41  28  60 N6        30.05R
FRANKLIN*      CLOUDY    42  28  56 N10G17    30.04R
WAKEFIELD      CLOUDY    43  25  49 N10       30.04R
$$

VAZ020-022-025-037-045-301700-
WEST CENTRAL AND SOUTHWEST VIRGINIA

CITY           SKY/WX    TMP DP  RH WIND       PRES   REMARKS
STAUNTON*      CLOUDY    36  21  54 N15       30.07R
WAYNESBORO*    CLOUDY    34  20  57 NW12G17   30.04R
HOT SPRINGS VA SNOW      23  19  87 NW18G30   29.92R VSB 1/2 WCI   8
LYNCHBURG      PTSUNNY   39  15  37 NW12G25   30.08S
DANVILLE       CLOUDY    43  20  39 NW14G22   30.12R
SOUTH BOSTON*  PTSUNNY   44  15  31 NW16G32   30.10R
MARTINSVILLE   CLOUDY    41  17  37 NW14G24   30.15S
ROANOKE        CLOUDY    38  18  44 W20G30    30.12R
BLACKSBURG     CLOUDY    31  21  67 W16G24    30.12R WCI  20
DUBLIN*        LGT SNOW  33  23  67 NW18G30   30.12R WCI  22
MARION*        LGT SNOW  31  19  60 W25G43    30.15R WCI  17
HILLSVILLE*    PTSUNNY   31  15  52 NW25G38   30.08R WCI  17
RICHLANDS*     LGT SNOW  27  19  73 W13G23    30.18R WCI  16
WISE*          FLURRIES  30  18  59 NW12G21   30.24R WCI  21
ABINGDON*      LGT SNOW  32  26  78 N8        30.24R
$$

MDZ021>025-VAZ099-100-301700-
SOUTHERN MARYLAND AND THE DELMARVA PENINSULA

CITY           SKY/WX    TMP DP  RH WIND       PRES   REMARKS
PATUXENT RIVER PTSUNNY   43  23  45 NW23      30.01R
BAY BRIDGE APT   N/A     41  25  52 NW13G20   30.00S
LEONARDTOWN    PTSUNNY   41  21  45 NW12G21   30.03R
DOVER          MOSUNNY   41  25  53 NW20G32   29.95S
GEORGETOWN     MOSUNNY   42  23  46 NW9G24    29.96S
EASTON         MOSUNNY   45  25  45 NW22G32   30.02S
CAMBRIDGE      SUNNY     43  25  49 NW15G22   29.99S
SALISBURY      MOSUNNY   44  24  45 NW15G26   29.97S
OCEAN CITY     PTSUNNY   41  26  55 N13       29.96S
WALLOPS ISLAND CLOUDY    41  26  55 NW16G22   29.98S
ACCOMACK*      CLOUDY    39  28  65 NW12G22   30.00S
$$

NCZ012>017-030>032-301700-
NORTH CENTRAL AND EASTERN NORTH CAROLINA

CITY           SKY/WX    TMP DP  RH WIND       PRES   REMARKS
ROANOKE RAPIDS CLOUDY    46  27  46 NW16G24   30.06R
RALEIGH        PTSUNNY   44  19  36 NW15G24   30.11R
ELIZABETH CITY CLOUDY    42  37  82 NW9       30.01S
AHOSKIE*       CLOUDY    44  29  55 NW6       30.04S
EDENTON*       CLOUDY    44  35  71 N13G18    30.02R
CURRITUCK*     CLOUDY    42  35  77 N7        30.01F
KILL DEVIL HLS PTSUNNY   40  39  96 N6        29.98S
MANTEO         CLOUDY    39  37  93 N7        30.00R
CAPE HATTERAS  CLOUDY    42  37  82 N10G20    29.99R
TARBORO*       CLOUDY    47  25  42 NW8       30.07R
GOLDSBORO      MOSUNNY   48  32  53 NW13G26   30.06R
WASHINGTON     PTSUNNY   46  31  54 N17G25    30.04R
GREENVILLE     PTSUNNY   46  28  49 N14G24    30.07R
NEW BERN       SUNNY     50  31  48 NW17G23   30.04R
WILMINGTON     MOSUNNY   50  30  46 NW20G29   30.06R
$$

VAZ048-301700-
ELSEWHERE

CITY           SKY/WX    TMP DP  RH WIND       PRES   REMARKS
HARRISBURG PA  CLOUDY    36  22  56 NW21G29   29.98S WCI  25
BALTIMORE      MOSUNNY   41  22  46 NW14G24   30.00R
ANNAPOLIS      MOSUNNY   41  21  44 NW17G30   30.00S
ANDREWS AFB    PTSUNNY   37  27  65 NW21G26   30.02S
PHILADELPHIA   PTSUNNY   39  22  50 NW24G30   29.95R
HENDERSON NC   MOSUNNY   43  15  32 NW18G25   30.09R
GREENSBORO     PTSUNNY   42  15  33 NW22G32   30.13R
ROCKY MOUNT    MOSUNNY   48  23  37 NW22G29   30.08R
$$

VAZ100-301700-
MARINE

STATION/POSITION TIME  TEMP    WIND        PRES    WAVE   SWELL
                       AIR SEA DIR/SP/G            HT/PER HT/PER
                 (UTC) (F)     (DEG/KT/KT) (MB)    (FT/S) (FT/S)
BRANDYWINE LGT   1600   37 36  330/ 15/ 22 1014.1S
CAPE MAY NJ      1600   37 37              1013.6R
LEWES DE         1600   37 36  330/ 17/ 21 1014.2S
15NM E FENWICK I 1600   38 40              1013.5R   4/ 4
OCEAN-CITY-INLET 1600   40 37  340/ 15/ 18 1014.1F
WACHAPREAGUE VA  1600   40 36  300/  6/ 15 1015.7R
THOMAS POINT MD  1600   40 36  320/ 18/ 23 1016.7S
GOOSES REEF MD   1600   39     VRB 17/ 21  1015.1S
COVE POINT MD    1600   38     350/ 22/ 24 1015.9S
SOLOMONS ISLAND  1600      37                N/A
BISHOPS HEAD MD  1600   40 35  310/ 18/ 22   N/A
PINEY POINT MD   1600          330/ 21/ 23   N/A
POTOMAC MD       1600   40     330/ 16/ 23 1015.5R
CAMBRIDGE MD     1600   39 35  300/ 14/ 19 1015.5S
LEWISETTA VA     1600   41 36  340/ 14/ 18 1016.4S
RAPPAHANNOCK LGT 1600          330/ 17/ 19 1016.3F
STINGRAY PT      1600   42     340/ 17/ 23 1016.5F
YORK RVR RNG VA  1600   41     350/ 19/ 22 1015.4F
YORKTOWN VA      1600   41 39  340/ 13/ 17 1016.2F
JAMESTOWN VA     1600   41     360/ 10/ 14   N/A
DOMINION TERM VA 1600   42     360/ 13/ 19 1016.7R
KIPTOPEKE VA     1600      43  360/ 14/ 17   N/A
CHES BAY BRIDGE  1600   41 40  330/ 16/ 18 1015.8S
CAPE HENRY VA    1600   40     330/ 16/ 18 1014.9R
CHESAPEAKE LGHT  1500   41     330/ 17/ 21 1016.1R
WILLOUBY STN VA  1600   41     350/ 15/ 17 1016.8R
S CRANEY ISL VA  1600          360/ 12/ 17 1016.3R
CAPE HENRY BUOY  1500      41                N/A     2/11
1ST LANDING BUOY 1600   41     340/ 16/ 19 1015.7F
CAPE CHARLES BUO 1500      41                N/A     1/11   2/11
OFFSHORE WE BUOY 1600      43                N/A     2/11   2/11
64NM E OF VA BCH 1600   42 49  340/ 21/ 25 1014.2F   5/ 5   2/ 9
DUCK PIER NC     1600   39 44  340/ 11/ 11 1014.7F
44100 DUCK FRF   1500      44                N/A     3/ 3   2/11
44056 DUCK FRF   1600      43                N/A     2/11
OREGON INLET NC  1600   39 41  360/ 13/ 18 1015.5F
HATTERAS NC      1600   42 46  350/ 20/ 23 1015.8S


USA.gov is the U.S. government's official web portal to all federal, state and local government web resources and services.